When you browse on this site, cookies collect data to enhance your experience and personalize the content and advertising you see.
Visit our Privacy Policy to learn more. By continuing to use the site, you agree to this use of cookies and data.

Hourly Weather Lunacharskoe

Today, 14 July, Tuesday

Time Temperature Precipitation Wind Pressure Humidity
00:00 +13°C° 0 mm 2 mps 746 mmHg 97%
01:00 +12°C° 0 mm 2 mps 746 mmHg 98%
02:00 +12°C° 0 mm 1 mps 746 mmHg 99%
03:00 +13°C° 0 mm 2 mps 746 mmHg 98%
04:00 +13°C° 0 mm 2 mps 746 mmHg 97%
05:00 +13°C° 0 mm 2 mps 745 mmHg 96%
06:00 +14°C° 0 mm 2 mps 746 mmHg 91%
07:00 +16°C° 0 mm 2 mps 746 mmHg 85%
08:00 +17°C° 0 mm 2 mps 746 mmHg 78%
09:00 +18°C° 0 mm 3 mps 746 mmHg 72%
10:00 +19°C° 0 mm 3 mps 746 mmHg 66%
11:00 +20°C° 0 mm 3 mps 746 mmHg 60%
12:00 +21°C° 0 mm 3 mps 746 mmHg 59%
13:00 +21°C° 0 mm 3 mps 746 mmHg 58%
14:00 +21°C° 0 mm 3 mps 746 mmHg 56%
15:00 +21°C° 0.1 mm 2 mps 746 mmHg 61%
16:00 +20°C° 0.1 mm 2 mps 745 mmHg 66%
17:00 +19°C° 0.1 mm 2 mps 745 mmHg 71%
18:00 +18°C° 0.5 mm 2 mps 745 mmHg 76%
19:00 +17°C° 0.5 mm 3 mps 745 mmHg 82%
20:00 +14°C° 0.5 mm 3 mps 744 mmHg 88%
21:00 +14°C° 1.5 mm 4 mps 744 mmHg 90%
22:00 +13°C° 1.5 mm 4 mps 743 mmHg 92%
23:00 +13°C° 1.5 mm 5 mps 742 mmHg 93%

Tomorrow, 15 July, Wednesday

Time Temperature Precipitation Wind Pressure Humidity
00:00 +13°C° 2.2 mm 5 mps 742 mmHg 95%
01:00 +12°C° 2.2 mm 5 mps 742 mmHg 96%
02:00 +11°C° 2.2 mm 6 mps 742 mmHg 97%
03:00 +11°C° 3.1 mm 6 mps 742 mmHg 97%
04:00 +11°C° 3.1 mm 6 mps 741 mmHg 97%
05:00 +12°C° 3.1 mm 5 mps 741 mmHg 97%
06:00 +11°C° 1.2 mm 6 mps 741 mmHg 97%
07:00 +11°C° 1.2 mm 6 mps 741 mmHg 97%
08:00 +11°C° 1.2 mm 6 mps 741 mmHg 97%
09:00 +11°C° 0.1 mm 6 mps 741 mmHg 96%
10:00 +11°C° 0.1 mm 6 mps 741 mmHg 95%
11:00 +13°C° 0.1 mm 6 mps 741 mmHg 94%
12:00 +13°C° 0 mm 6 mps 741 mmHg 91%
13:00 +14°C° 0 mm 5 mps 741 mmHg 88%
14:00 +15°C° 0 mm 5 mps 741 mmHg 85%
15:00 +15°C° 0 mm 5 mps 741 mmHg 85%
16:00 +15°C° 0 mm 5 mps 741 mmHg 86%
17:00 +15°C° 0 mm 5 mps 741 mmHg 86%
18:00 +14°C° 0.1 mm 5 mps 741 mmHg 88%
19:00 +14°C° 0.1 mm 4 mps 740 mmHg 90%
20:00 +14°C° 0.1 mm 4 mps 740 mmHg 92%
21:00 +13°C° 1 mm 4 mps 740 mmHg 94%
22:00 +13°C° 1 mm 4 mps 740 mmHg 95%
23:00 +13°C° 1 mm 4 mps 740 mmHg 97%

Day after tomorrow, 16 July, Thursday

Time Temperature Precipitation Wind Pressure Humidity
00:00 +13°C° 0.7 mm 4 mps 740 mmHg 97%
01:00 +13°C° 0.7 mm 4 mps 739 mmHg 98%
02:00 +13°C° 0.7 mm 4 mps 739 mmHg 98%
03:00 +13°C° 0.6 mm 3 mps 739 mmHg 98%
04:00 +13°C° 0.6 mm 3 mps 739 mmHg 98%
05:00 +14°C° 0.6 mm 2 mps 739 mmHg 99%
06:00 +14°C° 1 mm 2 mps 739 mmHg 98%
07:00 +14°C° 1 mm 2 mps 739 mmHg 98%
08:00 +15°C° 1 mm 2 mps 740 mmHg 97%
09:00 +15°C° 0.4 mm 2 mps 740 mmHg 96%
10:00 +16°C° 0.4 mm 2 mps 740 mmHg 95%
11:00 +16°C° 0.4 mm 3 mps 740 mmHg 94%
12:00 +16°C° 0.7 mm 3 mps 740 mmHg 93%
13:00 +16°C° 0.7 mm 3 mps 741 mmHg 93%
14:00 +16°C° 0.7 mm 3 mps 741 mmHg 93%
15:00 +16°C° 0.3 mm 3 mps 741 mmHg 93%
16:00 +16°C° 0.3 mm 3 mps 741 mmHg 93%
17:00 +14°C° 0.3 mm 3 mps 741 mmHg 93%
18:00 +14°C° 0 mm 3 mps 741 mmHg 94%
19:00 +14°C° 0 mm 3 mps 742 mmHg 95%
20:00 +15°C° 0 mm 2 mps 742 mmHg 96%
21:00 +14°C° 0 mm 3 mps 742 mmHg 96%
22:00 +13°C° 0 mm 3 mps 742 mmHg 96%
23:00 +13°C° 0 mm 3 mps 742 mmHg 96%

17 July, Friday

Time Temperature Precipitation Wind Pressure Humidity
00:00 +13°C° 0.1 mm 3 mps 742 mmHg 96%
01:00 +13°C° 0.1 mm 3 mps 742 mmHg 97%
02:00 +13°C° 0.1 mm 3 mps 743 mmHg 97%
03:00 +13°C° 0.1 mm 3 mps 743 mmHg 97%
04:00 +13°C° 0.1 mm 3 mps 743 mmHg 97%
05:00 +14°C° 0.1 mm 2 mps 743 mmHg 98%
06:00 +13°C° 0.1 mm 3 mps 743 mmHg 96%
07:00 +13°C° 0.1 mm 3 mps 743 mmHg 95%
08:00 +14°C° 0.1 mm 3 mps 744 mmHg 94%
09:00 +16°C° 0.2 mm 3 mps 744 mmHg 90%
10:00 +17°C° 0.2 mm 3 mps 744 mmHg 87%
11:00 +17°C° 0.2 mm 3 mps 745 mmHg 84%
12:00 +17°C° 0.3 mm 3 mps 745 mmHg 83%
13:00 +18°C° 0.3 mm 3 mps 745 mmHg 83%
14:00 +18°C° 0.3 mm 3 mps 745 mmHg 82%
15:00 +18°C° 0.1 mm 3 mps 745 mmHg 81%
16:00 +18°C° 0.1 mm 3 mps 745 mmHg 79%
17:00 +18°C° 0.1 mm 3 mps 746 mmHg 78%
18:00 +17°C° 0.1 mm 2 mps 746 mmHg 83%
19:00 +16°C° 0.1 mm 2 mps 746 mmHg 89%
20:00 +15°C° 0.1 mm 2 mps 746 mmHg 95%
21:00 +14°C° 0 mm 2 mps 746 mmHg 96%
22:00 +13°C° 0 mm 2 mps 747 mmHg 96%
23:00 +12°C° 0 mm 2 mps 747 mmHg 97%

18 July, Saturday

Time Temperature Precipitation Wind Pressure Humidity
00:00 +12°C° 0 mm 2 mps 747 mmHg 97%
01:00 +12°C° 0 mm 2 mps 747 mmHg 98%
02:00 +12°C° 0 mm 2 mps 747 mmHg 98%
03:00 +12°C° 0 mm 2 mps 748 mmHg 97%
04:00 +12°C° 0 mm 2 mps 748 mmHg 97%
05:00 +13°C° 0 mm 2 mps 748 mmHg 96%
06:00 +14°C° 0 mm 2 mps 748 mmHg 91%
07:00 +15°C° 0 mm 2 mps 748 mmHg 87%
08:00 +16°C° 0 mm 2 mps 748 mmHg 82%
09:00 +18°C° 0 mm 2 mps 748 mmHg 73%
10:00 +19°C° 0 mm 2 mps 748 mmHg 63%
11:00 +21°C° 0 mm 3 mps 748 mmHg 54%
12:00 +22°C° 0 mm 3 mps 748 mmHg 51%
13:00 +22°C° 0 mm 3 mps 748 mmHg 48%
14:00 +24°C° 0 mm 3 mps 749 mmHg 45%
15:00 +24°C° 0 mm 3 mps 748 mmHg 50%
16:00 +23°C° 0 mm 2 mps 748 mmHg 54%
17:00 +23°C° 0 mm 2 mps 748 mmHg 59%
18:00 +20°C° 0 mm 2 mps 748 mmHg 66%
19:00 +19°C° 0 mm 1 mps 749 mmHg 73%
20:00 +18°C° 0 mm 1 mps 749 mmHg 80%
21:00 +16°C° 0 mm 1 mps 749 mmHg 84%
22:00 +15°C° 0 mm 1 mps 749 mmHg 87%
23:00 +14°C° 0 mm 1 mps 749 mmHg 91%

19 July, Sunday

Time Temperature Precipitation Wind Pressure Humidity
00:00 +14°C° 0 mm 1 mps 749 mmHg 92%
01:00 +14°C° 0 mm 1 mps 749 mmHg 94%
02:00 +13°C° 0 mm 1 mps 750 mmHg 95%
03:00 +14°C° 0 mm 1 mps 750 mmHg 93%
04:00 +14°C° 0 mm 1 mps 750 mmHg 92%
05:00 +15°C° 0 mm 1 mps 750 mmHg 90%
06:00 +16°C° 0 mm 1 mps 750 mmHg 81%
07:00 +19°C° 0 mm 1 mps 750 mmHg 73%
08:00 +20°C° 0 mm 2 mps 750 mmHg 65%
09:00 +23°C° 0 mm 2 mps 750 mmHg 59%
10:00 +24°C° 0 mm 2 mps 750 mmHg 53%
11:00 +25°C° 0 mm 2 mps 750 mmHg 48%
12:00 +25°C° 0 mm 2 mps 750 mmHg 47%
13:00 +26°C° 0 mm 2 mps 749 mmHg 45%
14:00 +26°C° 0 mm 2 mps 749 mmHg 44%
15:00 +26°C° 0 mm 2 mps 749 mmHg 48%
16:00 +25°C° 0 mm 2 mps 749 mmHg 51%
17:00 +25°C° 0 mm 1 mps 749 mmHg 55%
18:00 +23°C° 0 mm 1 mps 749 mmHg 61%
19:00 +20°C° 0 mm 1 mps 748 mmHg 68%
20:00 +16°C° 0 mm 0 mps 748 mmHg 74%
21:00 +16°C° 0 mm 1 mps 748 mmHg 75%
22:00 +16°C° 0 mm 1 mps 749 mmHg 77%
23:00 +15°C° 0 mm 1 mps 749 mmHg 78%
Show more